SP4IM-13 Weather Reports


time (UTC)temp
F
wind
direction
speed
knots
gust
knots
rain 1hr
in
rain 24hr
in
rain mn
in
humidity
%
barometer
mb
20260906005006 55 315 2.6 7.8 0.00 0.00 0.00 95 1009.0
20260905233011 55 315 2.6 7.8 0.00 0.00 0.00 95 1009.0
20260905231009 55 302 2.6 7.0 0.00 0.00 0.00 95 1008.0
20260905225005 55 315 2.6 6.1 0.00 0.00 0.00 94 1008.0
20260905221007 55 300 2.6 5.2 0.00 0.00 0.00 93 1008.0
20260905220007 55 292 2.6 5.2 0.00 0.00 0.00 93 1008.0
20260905215004 55 295 3.5 8.7 0.00 0.00 0.00 93 1008.0
20260905200003 55 281 2.6 7.0 0.00 0.00 0.00 93 1008.0
20260905195005 55 246 0.9 3.5 0.00 0.00 0.00 92 1009.0
20260905172004 58 222 1.7 4.3 0.00 0.00 0.00 91 1009.0
20260905153009 61 346 5.2 13.9 0.00 0.00 0.00 81 1008.0
20260905151005 61 16 1.7 3.5 0.00 0.00 0.00 81 1007.0
20260905143009 62 45 1.7 4.3 0.00 0.00 0.00 82 1007.0
20260905141005 64 62 2.6 7.8 0.00 0.00 0.00 76 1007.0
20260905131003 67 336 4.3 11.3 0.00 0.00 0.00 63 1006.0
20260905120007 66 343 3.5 10.4 0.00 0.00 0.00 71 1006.0
20260905115006 66 57 3.5 11.3 0.00 0.00 0.00 71 1006.0
20260905105003 67 345 4.3 13.0 0.00 0.00 0.00 66 1006.0
20260905095004 65 328 3.5 12.2 0.00 0.00 0.00 69 1006.0
20260905094003 65 305 4.3 12.2 0.00 0.00 0.00 70 1006.0
20260905091006 65 298 3.5 9.6 0.00 0.00 0.00 71 1005.0
20260905072006 63 16 2.6 7.0 0.00 0.00 0.00 73 1004.0
20260905035008 62 301 3.5 8.7 0.00 0.00 0.00 92 1000.0
20260905012007 65 302 3.5 9.6 0.00 0.00 0.00 84 999.0